Location: Unspecified
(0.0000°N, 0.0000°E)
Time: 03:54:28
(UTC+00:00)

A-11 Canister half - Pass Details

Date: 25 April 2026
Orbit: 1523 x 1685 km, 47.3° (Epoch: 13 May)

Event Time Altitude Azimuth Distance (km) Brightness Sun altitude
Rises 20:36:24 0° 244° (WSW) 4,731 12.1 -38.3°
Reaches altitude 10° 20:39:56 10° 254° (WSW) 3,768 11.6 -39.2°
Maximum altitude 20:47:58 30° 312° (NW) 2,564 10.4 -41.1°
Drops below altitude 10° 20:56:14 10° 10° (N) 3,869 11.1 -43.1°
Sets 20:59:59 0° 20° (NNE) 4,876 11.6 -43.9°
